SL-8 R/B, 3131

Orbit data source: Space-Track

SL-8 R/B, 3131 is space debris in LEO originally from a launch on Tue, 20 Feb 1968 UTC launched from the Plesetsk Missile And Space Complex (PKMTR). Debris objects in space refer to the collection of defunct objects orbiting the Earth. Examples of debris include non-operational satellites, rocket bodies, and fragments generated from explosions, collisions, or faulty payload assembly.

Loading next visibility...
Identifier
3131, 1968-011B
Orbit
LEO
Country
Flag of CISCIS
Related business
Manufacturer
Yuzhnoe
Mission
Spacecraft
Bus & Motor
S3, Unknown motor
Mass
1,434 kg wet, 1,434 kg dry
Launch date (UTC)
1968-02-20 (58 years ago)
Launch vehicle
Unknown
Launch site
Plesetsk Missile And Space Complex (PKMTR)
Object type
Payload
Rocket body
Debris
Shape & HBR
Unknown
Radar Cross Section
Large (>1 m²)

Expand to show TLE details & history
Last TLE update: 23 hours ago

TLE from 23 hours ago
0 SL-8 R/B
1 03131U 68011B   26168.11125774 -.00000019  00000-0  16540-5 0  9997
2 03131  74.0495 112.6792 0014853 314.3961  45.5911 13.18030716805340
Epoch: 2026-06-17T02:40Z
TLE epoch observation values (Epoch: 2026-06-17T02:40:12.668Z)
Latitude
-0.00001°
Longitude
167.25278°
Altitude
1,186.857 km
Speed
7.264 km/s
True Right ascension
07h 30m 43s
True Declination
0° 00' 00"
Sunlit
Object was in daylight at epoch
Visualization orbit readout
Latitude
Unknown
Longitude
Unknown
Altitude
Unknown
Speed
Unknown
Apparent Right ascension
Unknown
Apparent Declination
Unknown
Sunlit
N/A
Visualization observer readout
Local Sidereal Time
12:04:48
Azimuth
Unknown
Elevation
Unknown
Doppler factor
Unknown
Orbital elements
Apogee altitude
1,201.248 km
Perigee altitude
1,178.766 km
Semi-major axis
7,568.144 km
Eccentricity
0.00149
Inclination
74.0495°
RAAN
112.6792°
Arg. of periapsis
314.3961°
True anomaly
45.71284°
Mean anomaly
45.5911°
Eccentric anomaly
45.65196°
Mean motion
3.29655 °/min
Orbital period
109.21 mins
BSTAR
0.000001654
Loading maneuver chart data...
Computing Atmospheric mass density...
Loading historical data...
Loading historical data...
Loading historical data...
Loading historical data...
Loading historical data...
Loading historical data...
Loading historical data...
Other satellites on launch #11 in the year 1968 (1968-02-20 UTC)

Documentation

Showing up to 5 results
|